This is the latest recevied weather packets stored in our database for station/object AD8AK. If no packets are shown the sender has not sent any weather packets the latest 10 day(s).
| Time | Temp. | Humidity | Pressure | Rain* | Wind** | Luminosity | Snow |
|---|---|---|---|---|---|---|---|
| 1777496644 | 12.22° C | 82% | 1010.1 hPa | 0 mm | - | - | - |
| 1777496340 | 12.78° C | 82% | 1009.9 hPa | 0 mm | - | - | - |
| 1777496036 | 12.78° C | 81% | 1009.9 hPa | 0 mm | - | - | - |
| 1777495732 | 12.78° C | 81% | 1009.7 hPa | 0 mm | - | - | - |
| 1777495428 | 12.78° C | 81% | 1009.8 hPa | 0 mm | - | - | - |
| 1777495124 | 12.78° C | 80% | 1009.8 hPa | 0 mm | - | - | - |
| 1777494822 | 12.78° C | 80% | 1009.8 hPa | 0 mm | - | - | - |
| 1777494519 | 12.78° C | 80% | 1009.8 hPa | 0 mm | - | - | - |
| 1777494216 | 12.78° C | 80% | 1009.8 hPa | 0 mm | - | - | - |
| 1777493913 | 13.33° C | 78% | 1009.7 hPa | 0 mm | - | - | - |
| 1777493612 | 13.33° C | 79% | 1009.8 hPa | 0 mm | - | - | - |
| 1777493309 | 13.33° C | 77% | 1009.7 hPa | 0 mm | - | - | - |
| 1777493005 | 13.33° C | 78% | 1010 hPa | 0 mm | - | - | - |
| 1777492702 | 13.33° C | 78% | 1010 hPa | 0 mm | - | - | - |
| 1777492401 | 12.78° C | 79% | 1009.9 hPa | 0 mm | - | - | - |
| 1777492100 | 13.33° C | 78% | 1010 hPa | 0 mm | - | - | - |
| 1777491796 | 13.33° C | 78% | 1010.2 hPa | 0 mm | - | - | - |
| 1777491493 | 13.33° C | 78% | 1010.1 hPa | 0 mm | - | - | - |
| 1777491190 | 13.33° C | 79% | 1010 hPa | 0 mm | - | - | - |
| 1777490886 | 13.33° C | 78% | 1010.2 hPa | 0 mm | - | - | - |
| 1777490582 | 13.33° C | 78% | 1010.1 hPa | 0 mm | - | - | - |
| 1777490278 | 13.89° C | 78% | 1010.1 hPa | 0 mm | - | - | - |
| 1777489976 | 13.89° C | 78% | 1010.1 hPa | 0 mm | - | - | - |
| 1777489674 | 13.33° C | 78% | 1010.1 hPa | 0 mm | - | - | - |
| 1777489370 | 13.33° C | 79% | 1009.9 hPa | 0 mm | - | - | - |
* Rain latest hour (hover to see other rain measurements)
** Current wind speed in m/s (hover to see current wind gust speed)